Location: Pel�-Koumbol�
(14.9505°N, 3.0798°W)
Time: 14:19:09
(UTC+00:00)

ARIANE 5 R/B - Pass Details

Date: 17 February 2020
Orbit: 273 x 32951 km, 6.1° (Epoch: 29 March)

Event Time Altitude Azimuth Distance (km) Brightness Sun altitude
Exits shadow 04:45:45 35° 202° (SSW) 1,463 3.7 -27.1°
Maximum altitude 04:45:50 35° 200° (SSW) 1,441 3.7 -27.1°
Drops below altitude 10° 04:49:01 10° 130° (SE) 1,705 5.0 -26.3°
Sets 04:50:22 0° 118° (ESE) 2,257 6.1 -26.0°
